Clinton, IA

7:11 PM CST on November 20, 2019 (GMT -0600)
Clinton Municipal

Weather History for KCWI - October, 2019

Change the Weather History Date:

Monday, October 21, 2019

  Actual Average Record
Temperature  
Mean Temperature 57 °F -  
Max Temperature 64 °F 63 °F 85 °F (1978)
Min Temperature 46 °F 40 °F 21 °F (2018)
Degree Days  
Heating Degree Days 8    
Growing Degree Days 7 (Base 50)    
Moisture  
Dew Point 49 °F    
Average Humidity 82    
Maximum Humidity 100    
Minimum Humidity 53    
Precipitation  
Precipitation 0.23 in - - ()
Sea Level Pressure  
Sea Level Pressure 29.47 in    
Wind  
Wind Speed 17 mph ()    
Max Wind Speed 30 mph    
Max Gust Speed 39 mph    
Visibility 8.7 miles    
Events Rain , Thunderstorm    
Averages and records for this station are not official NWS values.
T = Trace of Precipitation, MM = Missing Value Source: Averaged Metar Reports

Daily Weather History Graph

Daily Weather History Graph

Search for Another Location

Airport or City:

Astronomy

Oct. 21, 2019 Rise Set
Actual Time 7:20 AM CDT 6:10 PM CDT
Civil Twilight 6:51 AM CDT 6:39 PM CDT
Nautical Twilight 6:19 AM CDT 7:11 PM CDT
Astronomical Twilight 5:47 AM CDT 7:43 PM CDT
Moon No Moon Rise 2:41 PM CDT
Length of Visible Light 11h 47m
Length of Day
10h 50m
Waning Gibbous, 48% of the Moon is Illuminated
Oct 21
Waning Gibbous
Oct 27
New
Nov 4
First Quarter
Nov 12
Full
Nov 19
Last Quarter

Hourly Weather History & Observations

Time (CDT) Temp. Dew Point Humidity Pressure Visibility Wind Dir Wind Speed Gust Speed Precip Events Conditions
12:10 AM 53.6 °F 50.0 °F 88% 29.78 in 9.0 mi ESE 13.8 mph - N/A   Overcast
12:56 AM 53.1 °F 50.0 °F 89% 29.77 in 7.0 mi ESE 13.8 mph - N/A   Mostly Cloudy
1:56 AM 53.1 °F 50.0 °F 89% 29.73 in 6.0 mi ESE 16.1 mph - N/A   Overcast
2:56 AM 53.1 °F 50.0 °F 89% 29.68 in 6.0 mi ESE 19.6 mph - N/A   Mostly Cloudy
4:56 AM 55.0 °F 51.1 °F 86% 29.57 in 9.0 mi ESE 18.4 mph 26.5 mph N/A   Overcast
5:13 AM 55.4 °F 51.8 °F 88% 29.55 in 10.0 mi ESE 20.7 mph - N/A Thunderstorm Overcast
5:46 AM 55.4 °F 51.8 °F 88% 29.51 in 10.0 mi ESE 23.0 mph 28.8 mph N/A   Overcast
5:56 AM 55.0 °F 51.1 °F 86% 29.52 in 10.0 mi ESE 21.9 mph 25.3 mph N/A   Overcast
6:39 AM 55.4 °F 53.6 °F 94% 29.51 in 6.0 mi SW 12.7 mph - 0.03 in Rain , Thunderstorm Thunderstorms and Rain
6:53 AM 53.6 °F 51.8 °F 94% 29.49 in 4.0 mi South 8.1 mph - 0.11 in Rain Heavy Rain
6:56 AM 53.1 °F 52.0 °F 96% 29.48 in 3.0 mi ESE 11.5 mph - 0.13 in Rain Heavy Rain
7:10 AM 53.6 °F 53.6 °F 100% 29.40 in 4.0 mi ESE 20.7 mph - 0.04 in Rain , Thunderstorm Rain
7:22 AM 53.6 °F 53.6 °F 100% 29.40 in 5.0 mi ESE 16.1 mph - 0.05 in Rain Light Rain
7:46 AM 55.4 °F 53.6 °F 94% 29.40 in 10.0 mi ESE 16.1 mph - 0.05 in   Overcast
7:56 AM 55.9 °F 55.0 °F 97% 29.40 in 10.0 mi ESE 18.4 mph - 0.05 in Rain Light Rain
8:56 AM 57.0 °F 55.9 °F 96% 29.37 in 10.0 mi SE 20.7 mph 29.9 mph 0.00 in   Overcast
9:56 AM 57.9 °F 57.0 °F 97% 29.34 in 9.0 mi South 17.3 mph - 0.02 in Rain Light Rain
10:25 AM 59.0 °F 57.2 °F 94% 29.33 in 10.0 mi South 16.1 mph - 0.01 in   Overcast
10:56 AM 60.1 °F 57.9 °F 93% 29.35 in 10.0 mi SSW 19.6 mph - 0.01 in   Overcast
11:56 AM 62.1 °F 55.0 °F 78% 29.35 in 10.0 mi SW 25.3 mph 38.0 mph N/A   Mostly Cloudy
12:27 PM 64.4 °F 55.4 °F 73% 29.34 in 10.0 mi SW 20.7 mph 29.9 mph N/A   Scattered Clouds
12:56 PM 63.0 °F 51.1 °F 65% 29.35 in 10.0 mi SW 23.0 mph 34.5 mph N/A   Mostly Cloudy
1:56 PM 62.1 °F 45.0 °F 53% 29.37 in 10.0 mi SW 24.2 mph 32.2 mph N/A   Mostly Cloudy
2:56 PM 60.1 °F 43.0 °F 53% 29.38 in 10.0 mi SW 26.5 mph 29.9 mph N/A   Mostly Cloudy
3:56 PM 57.9 °F 42.1 °F 56% 29.42 in 10.0 mi SW 26.5 mph 32.2 mph N/A   Overcast
4:56 PM 54.0 °F 39.0 °F 57% 29.45 in 10.0 mi SW 29.9 mph 39.1 mph N/A   Overcast
5:56 PM 52.0 °F 39.0 °F 61% 29.49 in 10.0 mi SW 24.2 mph 28.8 mph N/A   Overcast
6:56 PM 52.0 °F 39.9 °F 63% 29.50 in 10.0 mi SW 19.6 mph 24.2 mph N/A   Overcast
7:56 PM 52.0 °F 41.0 °F 66% 29.51 in 10.0 mi SW 15.0 mph 20.7 mph N/A   Overcast
8:56 PM 50.0 °F 43.0 °F 77% 29.49 in 9.0 mi SW 20.7 mph 28.8 mph 0.00 in Rain Light Rain
9:56 PM 51.1 °F 42.1 °F 71% 29.48 in 10.0 mi SW 18.4 mph 29.9 mph 0.00 in   Mostly Cloudy
10:56 PM 52.0 °F 43.0 °F 71% 29.46 in 10.0 mi SW 24.2 mph 31.1 mph N/A   Overcast
11:56 PM 46.9 °F 45.0 °F 93% 29.47 in 10.0 mi WSW 26.5 mph 34.5 mph 0.02 in Rain Light Rain